Creek Data

    Home     View Charts     View Raw Data     Messages

ID Distance Battery Voltage Battery Current Internal Temp Internal Humidity External Temp Solar Input rssi snr Time Stamp Record
36804 14.9 3.85 -5 52 44 54 0 -78 8 04/03/2025 08:45 PM 18664
36803 0.0 3.93 -5 53 45 54 0 -78 8 04/03/2025 08:30 PM 18663
36802 0.0 3.86 -5 54 45 55 0 -78 7 04/03/2025 08:15 PM 18662
36801 0.0 3.83 -5 56 47 56 0 -78 7 04/03/2025 08:00 PM 18661
36800 0.0 3.86 -5 58 47 57 0.5 -78 7 04/03/2025 07:45 PM 18660
36799 0.0 3.92 -10 60 47 59 3.2 -78 8 04/03/2025 07:30 PM 18659
36798 0.0 3.95 0 64 46 60 4.5 -78 8 04/03/2025 07:16 PM 18658
36797 0.0 3.99 9 68 45 62 4.5 -78 9 04/03/2025 07:00 PM 18657
36796 0.0 3.94 12 71 44 64 4.5 -76 8 04/03/2025 06:45 PM 18656
36795 15.0 3.92 0 72 43 65 5.1 -76 8 04/03/2025 06:30 PM 18655
36794 15.1 3.92 0 73 42 66 5.1 -75 8 04/03/2025 06:15 PM 18654
36793 15.1 4.01 0 74 42 66 5.1 -77 7 04/03/2025 06:00 PM 18653
36792 15.1 3.92 0 76 40 67 5.1 -76 8 04/03/2025 05:30 PM 18651
36791 15.1 3.92 0 76 40 67 5.1 -75 8 04/03/2025 05:15 PM 18650
36790 15.1 3.92 0 75 40 67 5.1 -75 8 04/03/2025 05:00 PM 18649
36789 15.0 3.92 0 75 40 66 5.1 -77 8 04/03/2025 04:45 PM 18648
36788 15.1 3.92 0 74 41 64 5.1 -76 8 04/03/2025 04:30 PM 18647
36787 15.1 3.92 0 77 38 66 5.1 -75 8 04/03/2025 04:00 PM 18645
36786 0.0 3.96 0 77 38 66 5.1 -76 8 04/03/2025 03:45 PM 18644
36785 15.2 3.92 0 76 38 65 5.1 -75 8 04/03/2025 03:30 PM 18643
36784 0.0 3.98 0 77 37 65 5.1 -76 9 04/03/2025 03:16 PM 18642
36783 0.0 3.97 0 76 36 65 5.1 -76 8 04/03/2025 03:00 PM 18641
36782 0.0 3.93 0 74 37 64 5.1 -76 9 04/03/2025 02:45 PM 18640
36781 0.0 3.92 0 72 37 63 5.1 -77 8 04/03/2025 02:30 PM 18639
36780 0.0 3.92 0 71 37 62 5.1 -76 8 04/03/2025 02:15 PM 18638